Regional Weather Roundup
Issued by NWS Upton, NY

Current Version | Previous Version | Text Only | Print | Product List | Glossary On
Versions: 1 2 3 4 5 6 7 8 9 10 11 12 13 14 15 16 17 18 19 20 21 22 23 24 25 26 27 28 29 30 31 32 33 34 35 36 37 38 39 40 41 42 43 44 45 46 47 48 49 50
000
ASUS41 KOKX 220805
RWROKX

REGIONAL WEATHER ROUNDUP
NATIONAL WEATHER SERVICE NEW YORK NY
400 AM EDT TUE JUL 22 2014

NOTE: "FAIR" INDICATES FEW OR NO CLOUDS BELOW 12,000 FEET WITH NO
SIGNIFICANT WEATHER AND/OR OBSTRUCTIONS TO VISIBILITY.

NYZ071-072-176-178-NJZ106-104-220900-
NEW YORK CITY METRO AREA


CITY           SKY/WX    TMP DP  RH WIND       PRES   REMARKS
CENTRAL PARK   CLEAR     72  60  66 CALM      30.19S
LAGUARDIA APRT CLEAR     73  58  59 SW6       30.15F
KENNEDY INTL   PTCLDY    70  61  73 SW7       30.17S
NEWARK/LIBERTY PTCLDY    70  63  78 SW3       30.16S
BRNX BOT. GARD   N/A     72  61  68 SW6       30.16S
TETERBORO      CLEAR     69  61  75 CALM      30.15S
$$

NYZ177-179-078>081-220900-
LONG ISLAND NEW YORK

CITY           SKY/WX    TMP DP  RH WIND       PRES   REMARKS
FARMINGDALE    CLEAR     68  63  84 CALM      30.17S
ISLIP          CLEAR     69  63  81 W3        30.15S
SHIRLEY        CLEAR     64  62  93 CALM      30.17S
WESTHAMPTON    CLOUDY    57  57 100 CALM      30.18S FOG
MONTAUK POINT    N/A     67  65  93 SW3       30.18S
$$

NYZ052-065-067-220900-
HUDSON VALLEY

CITY           SKY/WX    TMP DP  RH WIND       PRES   REMARKS
WHITE PLAINS   CLEAR     67  62  84 W3        30.16S
NEWBURGH       CLEAR     66  64  94 CALM      30.17
MONTGOMERY     CLEAR     64  62  93 S3        30.16S
POUGHKEEPSIE   CLEAR     66  63  90 CALM      30.14S
ALBANY         MOCLDY    70  64  81 S7        30.13S
$$

NJZ001-105-106-008-010-013-015-019>022-104-220900-
NEW JERSEY

CITY           SKY/WX    TMP DP  RH WIND       PRES   REMARKS
NEWARK/LIBERTY PTCLDY    70  63  78 SW3       30.16S
TETERBORO      CLEAR     69  61  75 CALM      30.15S
CALDWELL       CLEAR     68  64  87 CALM      30.17S
MORRISTOWN     CLEAR     66  63  88 CALM      30.16S
SOMERVILLE     CLEAR     64  61  90 CALM      30.15F
LINDEN         FAIR      71  62  74 CALM      30.18S
SUSSEX         CLEAR     65  62  90 CALM      30.17S
ANDOVER          N/A     63  62  97 CALM      30.18S
TRENTON        CLEAR     66  60  81 CALM      30.17S
MILLVILLE      CLEAR     61  60  97 CALM      30.18R
ATLANTIC CITY  CLEAR     62  60  93 CALM      30.17S
WRIGHTSTOWN    CLEAR     63  61  92 W2        30.16S
TOMS RIVER     CLEAR     61  57  88 CALM      30.18R
BELMAR         CLEAR     64  57  77 W3        30.17S
$$

PAZ047>061-062-071-220900-
EASTERN PENNSYLVANIA

CITY           SKY/WX    TMP DP  RH WIND       PRES   REMARKS
PHILADELPHIA   CLEAR     71  62  73 SW3       30.17S
ALLENTOWN      CLEAR     65  63  93 CALM      30.17S
SCRANTON       PTCLDY    66  62  87 E5        30.18R
$$

CTZ002-004>006-009-010-012-RIZ004-006-007-MAZ004-011-015-220900-
SOUTHERN NEW ENGLAND
 IN CT

CITY           SKY/WX    TMP DP  RH WIND       PRES   REMARKS
BRADLEY INTL   PTCLDY    67  62  84 S6        30.13F
HARTFORD       CLEAR     66  62  87 S6        30.14S
DANBURY        CLEAR     62  59  90 CALM      30.18S
WTRBRY/OXFORD  CLEAR     64  59  82 CALM      30.19S
BRIDGEPORT     CLEAR     71  66  84 SW6       30.15F
MERIDEN        CLEAR     62  60  93 CALM      30.15F
NEW HAVEN      CLEAR     72  66  81 VRB3      30.15F
CHESTER        FAIR      64  64 100 SW3       30.17S
GROTON         CLEAR     64  63  96 CALM      30.15F
WILLIMANTIC    CLEAR     61  59  93 NE3       30.16F

 IN RI

CITY           SKY/WX    TMP DP  RH WIND       PRES   REMARKS
PROVIDENCE     PTCLDY    64  61  90 CALM      30.15S
BLOCK ISLAND   CLEAR     64  63  94 W6        30.17S
WESTERLY       CLEAR     62  59  90 CALM      30.17S

 IN MA

CITY           SKY/WX    TMP DP  RH WIND       PRES   REMARKS
BOSTON         PTCLDY    66  62  87 SW7       30.13S
WORCESTER      CLEAR     63  61  93 W10       30.16S
WESTFIELD      PTCLDY    62  60  93 CALM      30.14S
PROVINCETOWN   CLOUDY    63  61  94 SW3       30.15S VSB 1/4
NANTUCKET      FOG       64  63  96 NW5       30.16R VSB 1/2
$$

ANZ330-335-338-340-345-350-353-355-220900-
COASTAL MARINE OBSERVATIONS


STATION/POSITION TIME  SKY/WX   TEMP    WIND        PRES    VSBY  WAVE
                                AIR SEA DIR/SP/G                  HT/PER
                 (UTC)          (F)     (DEG/KT/KT) (MB)    (MI)  (FT/S)
NY HARB ENTRANCE NOT AVBL
4S FIRE IS       NOT AVBL
23SW MTP         0800            69 70              1021.1          2/ 7
HUDSON CANYON    0800            70 72  310/  8/  8 1021.2          2/ 6
EXECUTION ROCKS  0800            71 70  210/  6/  8   N/A
WESTERN LI SOUND 0800            72     230/  6/  8   N/A           0
CENTRAL LI SOUND 0700            70 72  220/  6/  8   N/A           1
EASTERN LI SOUND 0700            67 66  240/  4/  6   N/A
ROBBINS REEF     0800            71     230/  3/  4   N/A
$$


>>>>>>>>>>>>>>>>>>>>>>>>>>>> KEY <<<<<<<<<<<<<<<<<<<<<<<<<<<
>                                                          <
>     SKY/WX - SKY CONDITION/PRESENT WEATHER               <
>     TMP    - TEMPERATURE IN FAHRENHEIT                   <
>     DP     - DEWPOINT IN FAHRENHEIT                      <
>     RH     - RELATIVE HUMIDITY IN PERCENT                <
>     WIND   - DIRECTION AND SPEED IN MPH                  <
>     PRES   - MEAN SEA LEVEL PRESSURE IN INCHES OF HG     <
>     WCI    - WIND CHILL INDEX                            <
>     VSB    - VISIBILITY IN MILES                         <
>     HX     - HEAT INDEX                                  <
>     TC     - TEMPERATURE IN CELSIUS                      <
>     VRB    - VARIABLE WIND DIRECTION                     <
>                                                          <
>>>>>>>>>>>>>>>>>>>>>>>>>>>> KEY <<<<<<<<<<<<<<<<<<<<<<<<<<<





USA.gov is the U.S. government's official web portal to all federal, state and local government web resources and services.